Year,Month,Day,Hour,Minute,Value (Times are PST for temperature in C)
2015,02,23,00,00,2.20
2015,02,23,00,01,2.20
2015,02,23,00,02,2.20
2015,02,23,00,03,2.20
2015,02,23,00,04,2.20
2015,02,23,00,05,2.20
2015,02,23,00,06,2.20
2015,02,23,00,07,2.20
2015,02,23,00,08,2.20
2015,02,23,00,09,2.20
2015,02,23,00,10,2.20
2015,02,23,00,11,2.20
2015,02,23,00,12,2.20
2015,02,23,00,13,2.20
2015,02,23,00,14,2.20
2015,02,23,00,15,2.20
2015,02,23,00,16,2.20
2015,02,23,00,17,2.20
2015,02,23,00,18,2.20
2015,02,23,00,19,2.20
2015,02,23,00,20,2.20
2015,02,23,00,21,2.20
2015,02,23,00,22,2.20
2015,02,23,00,23,2.20
2015,02,23,00,24,2.20
2015,02,23,00,25,2.10
2015,02,23,00,26,2.10
2015,02,23,00,27,2.10
2015,02,23,00,28,2.10
2015,02,23,00,29,2.10
2015,02,23,00,30,2.10
2015,02,23,00,31,2.10
2015,02,23,00,32,2.00
2015,02,23,00,33,2.00
2015,02,23,00,34,2.00
2015,02,23,00,35,2.00
2015,02,23,00,36,2.00
2015,02,23,00,37,2.00
2015,02,23,00,38,2.00
2015,02,23,00,39,2.00
2015,02,23,00,40,2.00
2015,02,23,00,41,2.00
2015,02,23,00,42,2.00
2015,02,23,00,43,2.00
2015,02,23,00,44,2.00
2015,02,23,00,45,2.00
2015,02,23,00,46,2.00
2015,02,23,00,47,1.90
2015,02,23,00,48,1.90
2015,02,23,00,49,1.90
2015,02,23,00,50,1.90
2015,02,23,00,51,1.90
2015,02,23,00,52,1.90
2015,02,23,00,53,1.90
2015,02,23,00,54,1.80
2015,02,23,00,55,1.80
2015,02,23,00,56,1.80
2015,02,23,00,57,1.80
2015,02,23,00,58,1.80
2015,02,23,00,59,1.80
2015,02,23,01,00,1.80
2015,02,23,01,01,1.80
2015,02,23,01,02,1.80
2015,02,23,01,03,1.80
2015,02,23,01,04,1.80
2015,02,23,01,05,1.80
2015,02,23,01,06,1.80
2015,02,23,01,07,1.80
2015,02,23,01,08,1.80
2015,02,23,01,09,1.80
2015,02,23,01,10,1.80
2015,02,23,01,11,1.80
2015,02,23,01,12,1.80
2015,02,23,01,13,1.80
2015,02,23,01,14,1.70
2015,02,23,01,15,1.70
2015,02,23,01,16,1.70
2015,02,23,01,17,1.70
2015,02,23,01,18,1.70
2015,02,23,01,19,1.70
2015,02,23,01,20,1.70
2015,02,23,01,21,1.70
2015,02,23,01,22,1.70
2015,02,23,01,23,1.80
2015,02,23,01,24,1.80
2015,02,23,01,25,1.80
2015,02,23,01,26,1.80
2015,02,23,01,27,1.80
2015,02,23,01,28,1.80
2015,02,23,01,29,1.80
2015,02,23,01,30,1.80
2015,02,23,01,31,1.80
2015,02,23,01,32,1.80
2015,02,23,01,33,1.80
2015,02,23,01,34,1.80
2015,02,23,01,35,1.70
2015,02,23,01,36,1.70
2015,02,23,01,37,1.70
2015,02,23,01,38,1.60
2015,02,23,01,39,1.60
2015,02,23,01,40,1.60
2015,02,23,01,41,1.60
2015,02,23,01,42,1.60
2015,02,23,01,43,1.60
2015,02,23,01,44,1.60
2015,02,23,01,45,1.60
2015,02,23,01,46,1.70
2015,02,23,01,47,1.70
2015,02,23,01,48,1.70
2015,02,23,01,49,1.70
2015,02,23,01,50,1.70
2015,02,23,01,51,1.70
2015,02,23,01,52,1.70
2015,02,23,01,53,1.70
2015,02,23,01,54,1.70
2015,02,23,01,55,1.80
2015,02,23,01,56,1.80
2015,02,23,01,57,1.80
2015,02,23,01,58,1.80
2015,02,23,01,59,1.80
2015,02,23,02,00,1.80
2015,02,23,02,01,1.80
2015,02,23,02,02,1.80
2015,02,23,02,03,1.80
2015,02,23,02,04,1.80
2015,02,23,02,05,1.80
2015,02,23,02,06,1.70
2015,02,23,02,07,1.70
2015,02,23,02,08,1.70
2015,02,23,02,09,1.70
2015,02,23,02,10,1.70
2015,02,23,02,11,1.70
2015,02,23,02,12,1.70
2015,02,23,02,13,1.70
2015,02,23,02,14,1.70
2015,02,23,02,15,1.70
2015,02,23,02,16,1.70
2015,02,23,02,17,1.70
2015,02,23,02,18,1.70
2015,02,23,02,19,1.70
2015,02,23,02,20,1.70
2015,02,23,02,21,1.70
2015,02,23,02,22,1.70
2015,02,23,02,23,1.80
2015,02,23,02,24,1.80
2015,02,23,02,25,1.80
2015,02,23,02,26,1.80
2015,02,23,02,27,1.80
2015,02,23,02,28,1.80
2015,02,23,02,29,1.80
2015,02,23,02,30,1.80
2015,02,23,02,31,1.80
2015,02,23,02,32,1.80
2015,02,23,02,33,1.80
2015,02,23,02,34,1.80
2015,02,23,02,35,1.80
2015,02,23,02,36,1.80
2015,02,23,02,37,1.80
2015,02,23,02,38,1.80
2015,02,23,02,39,1.80
2015,02,23,02,40,1.70
2015,02,23,02,41,1.70
2015,02,23,02,42,1.70
2015,02,23,02,43,1.70
2015,02,23,02,44,1.70
2015,02,23,02,45,1.70
2015,02,23,02,46,1.70
2015,02,23,02,47,1.70
2015,02,23,02,48,1.70
2015,02,23,02,49,1.70
2015,02,23,02,50,1.70
2015,02,23,02,51,1.70
2015,02,23,02,52,1.70
2015,02,23,02,53,1.70
2015,02,23,02,54,1.70
2015,02,23,02,55,1.70
2015,02,23,02,56,1.60
2015,02,23,02,57,1.60
2015,02,23,02,58,1.60
2015,02,23,02,59,1.60
2015,02,23,03,00,1.50
2015,02,23,03,01,1.50
2015,02,23,03,02,1.50
2015,02,23,03,03,1.40
2015,02,23,03,04,1.40
2015,02,23,03,05,1.40
2015,02,23,03,06,1.40
2015,02,23,03,07,1.30
2015,02,23,03,08,1.30
2015,02,23,03,09,1.30
2015,02,23,03,10,1.30
2015,02,23,03,11,1.30
2015,02,23,03,12,1.30
2015,02,23,03,13,1.30
2015,02,23,03,14,1.30
2015,02,23,03,15,1.30
2015,02,23,03,16,1.30
2015,02,23,03,17,1.30
2015,02,23,03,18,1.30
2015,02,23,03,19,1.30
2015,02,23,03,20,1.20
2015,02,23,03,21,1.20
2015,02,23,03,22,1.20
2015,02,23,03,23,1.20
2015,02,23,03,24,1.20
2015,02,23,03,25,1.10
2015,02,23,03,26,1.10
2015,02,23,03,27,1.10
2015,02,23,03,28,1.10
2015,02,23,03,29,1.00
2015,02,23,03,30,1.00
2015,02,23,03,31,1.00
2015,02,23,03,32,0.90
2015,02,23,03,33,0.90
2015,02,23,03,34,0.80
2015,02,23,03,35,0.80
2015,02,23,03,36,0.80
2015,02,23,03,37,0.80
2015,02,23,03,38,0.80
2015,02,23,03,39,0.80
2015,02,23,03,40,0.80
2015,02,23,03,41,0.80
2015,02,23,03,42,0.80
2015,02,23,03,43,0.80
2015,02,23,03,44,0.80
2015,02,23,03,45,0.80
2015,02,23,03,46,0.80
2015,02,23,03,47,0.80
2015,02,23,03,48,0.80
2015,02,23,03,49,0.80
2015,02,23,03,50,0.80
2015,02,23,03,51,0.80
2015,02,23,03,52,0.80
2015,02,23,03,53,0.70
2015,02,23,03,54,0.70
2015,02,23,03,55,0.70
2015,02,23,03,56,0.70
2015,02,23,03,57,0.60
2015,02,23,03,58,0.60
2015,02,23,03,59,0.60
2015,02,23,04,00,0.50
2015,02,23,04,01,0.50
2015,02,23,04,02,0.40
2015,02,23,04,03,0.40
2015,02,23,04,04,0.30
2015,02,23,04,05,0.10
2015,02,23,04,06,0.10
2015,02,23,04,07,-0.10
2015,02,23,04,08,-0.10
2015,02,23,04,09,-0.20
2015,02,23,04,10,-0.30
2015,02,23,04,11,-0.40
2015,02,23,04,12,-0.50
2015,02,23,04,13,-0.60
2015,02,23,04,14,-0.70
2015,02,23,04,15,-0.70
2015,02,23,04,16,-0.80
2015,02,23,04,17,-0.80
2015,02,23,04,18,-0.80
2015,02,23,04,19,-0.80
2015,02,23,04,20,-0.80
2015,02,23,04,21,-0.80
2015,02,23,04,22,-0.80
2015,02,23,04,23,-0.80
2015,02,23,04,24,-0.80
2015,02,23,04,25,-0.80
2015,02,23,04,26,-0.80
2015,02,23,04,27,-0.80
2015,02,23,04,28,-0.80
2015,02,23,04,29,-0.90
2015,02,23,04,30,-0.90
2015,02,23,04,31,-0.80
2015,02,23,04,32,-0.80
2015,02,23,04,33,-0.80
2015,02,23,04,34,-0.80
2015,02,23,04,35,-0.80
2015,02,23,04,36,-0.80
2015,02,23,04,37,-0.80
2015,02,23,04,38,-0.70
2015,02,23,04,39,-0.70
2015,02,23,04,40,-0.70
2015,02,23,04,41,-0.70
2015,02,23,04,42,-0.70
2015,02,23,04,43,-0.70
2015,02,23,04,44,-0.70
2015,02,23,04,45,-0.70
2015,02,23,04,46,-0.70
2015,02,23,04,47,-0.70
2015,02,23,04,48,-0.80
2015,02,23,04,49,-0.80
2015,02,23,04,50,-0.80
2015,02,23,04,51,-0.80
2015,02,23,04,52,-0.80
2015,02,23,04,53,-0.80
2015,02,23,04,54,-0.80
2015,02,23,04,55,-0.80
2015,02,23,04,56,-0.80
2015,02,23,04,57,-0.80
2015,02,23,04,58,-0.80
2015,02,23,04,59,-0.80
2015,02,23,05,00,-0.70
2015,02,23,05,01,-0.70
2015,02,23,05,02,-0.70
2015,02,23,05,03,-0.70
2015,02,23,05,04,-0.60
2015,02,23,05,05,-0.60
2015,02,23,05,06,-0.60
2015,02,23,05,07,-0.60
2015,02,23,05,08,-0.60
2015,02,23,05,09,-0.60
2015,02,23,05,10,-0.60
2015,02,23,05,11,-0.60
2015,02,23,05,12,-0.60
2015,02,23,05,13,-0.70
2015,02,23,05,14,-0.70
2015,02,23,05,15,-0.80
2015,02,23,05,16,-0.80
2015,02,23,05,17,-0.80
2015,02,23,05,18,-0.80
2015,02,23,05,19,-0.80
2015,02,23,05,20,-0.90
2015,02,23,05,21,-0.90
2015,02,23,05,22,-0.90
2015,02,23,05,23,-0.90
2015,02,23,05,24,-0.90
2015,02,23,05,25,-0.90
2015,02,23,05,26,-0.90
2015,02,23,05,27,-0.90
2015,02,23,05,28,-0.90
2015,02,23,05,29,-0.80
2015,02,23,05,30,-0.80
2015,02,23,05,31,-0.80
2015,02,23,05,32,-0.80
2015,02,23,05,33,-0.80
2015,02,23,05,34,-0.80
2015,02,23,05,35,-0.70
2015,02,23,05,36,-0.70
2015,02,23,05,37,-0.60
2015,02,23,05,38,-0.60
2015,02,23,05,39,-0.60
2015,02,23,05,40,-0.60
2015,02,23,05,41,-0.60
2015,02,23,05,42,-0.60
2015,02,23,05,43,-0.60
2015,02,23,05,44,-0.60
2015,02,23,05,45,-0.60
2015,02,23,05,46,-0.60
2015,02,23,05,47,-0.60
2015,02,23,05,48,-0.60
2015,02,23,05,49,-0.70
2015,02,23,05,50,-0.70
2015,02,23,05,51,-0.80
2015,02,23,05,52,-0.90
2015,02,23,05,53,-0.90
2015,02,23,05,54,-1.00
2015,02,23,05,55,-1.10
2015,02,23,05,56,-1.10
2015,02,23,05,57,-1.10
2015,02,23,05,58,-1.20
2015,02,23,05,59,-1.20
2015,02,23,06,00,-1.20
2015,02,23,06,01,-1.20
2015,02,23,06,02,-1.20
2015,02,23,06,03,-1.20
2015,02,23,06,04,-1.20
2015,02,23,06,05,-1.20
2015,02,23,06,06,-1.20
2015,02,23,06,07,-1.30
2015,02,23,06,08,-1.30
2015,02,23,06,09,-1.20
2015,02,23,06,10,-1.20
2015,02,23,06,11,-1.20
2015,02,23,06,12,-1.20
2015,02,23,06,13,-1.20
2015,02,23,06,14,-1.20
2015,02,23,06,15,-1.30
2015,02,23,06,16,-1.30
2015,02,23,06,17,-1.30
2015,02,23,06,18,-1.20
2015,02,23,06,19,-1.20
2015,02,23,06,20,-1.20
2015,02,23,06,21,-1.20
2015,02,23,06,22,-1.20
2015,02,23,06,23,-1.20
2015,02,23,06,24,-1.10
2015,02,23,06,25,-1.10
2015,02,23,06,26,-1.10
2015,02,23,06,27,-1.10
2015,02,23,06,28,-1.10
2015,02,23,06,29,-1.10
2015,02,23,06,30,-1.10
2015,02,23,06,31,-1.10
2015,02,23,06,32,-1.10
2015,02,23,06,33,-1.10
2015,02,23,06,34,-1.10
2015,02,23,06,35,-1.10
2015,02,23,06,36,-1.10
2015,02,23,06,37,-1.10
2015,02,23,06,38,-1.10
2015,02,23,06,39,-1.00
2015,02,23,06,40,-0.90
2015,02,23,06,41,-0.90
2015,02,23,06,42,-0.90
2015,02,23,06,43,-0.90
2015,02,23,06,44,-0.90
2015,02,23,06,45,-0.90
2015,02,23,06,46,-0.90
2015,02,23,06,47,-0.90
2015,02,23,06,48,-0.90
2015,02,23,06,49,-0.90
2015,02,23,06,50,-0.90
2015,02,23,06,51,-0.90
2015,02,23,06,52,-0.90
2015,02,23,06,53,-0.90
2015,02,23,06,54,-0.90
2015,02,23,06,55,-0.90
2015,02,23,06,56,-0.90
2015,02,23,06,57,-0.90
2015,02,23,06,58,-0.90
2015,02,23,06,59,-0.90
2015,02,23,07,00,-0.80
2015,02,23,07,01,-0.80
2015,02,23,07,02,-0.70
2015,02,23,07,03,-0.60
2015,02,23,07,04,-0.60
2015,02,23,07,05,-0.60
2015,02,23,07,06,-0.50
2015,02,23,07,07,-0.40
2015,02,23,07,08,-0.40
2015,02,23,07,09,-0.40
2015,02,23,07,10,-0.40
2015,02,23,07,11,-0.40
2015,02,23,07,12,-0.30
2015,02,23,07,13,-0.30
2015,02,23,07,14,-0.30
2015,02,23,07,15,-0.30
2015,02,23,07,16,-0.30
2015,02,23,07,17,-0.30
2015,02,23,07,18,-0.30
2015,02,23,07,19,-0.30
2015,02,23,07,20,-0.20
2015,02,23,07,21,-0.20
2015,02,23,07,22,-0.20
2015,02,23,07,23,-0.20
2015,02,23,07,24,-0.20
2015,02,23,07,25,-0.10
2015,02,23,07,26,-0.10
2015,02,23,07,27,-0.10
2015,02,23,07,28,-0.10
2015,02,23,07,29,0.00
2015,02,23,07,30,0.10
2015,02,23,07,31,0.10
2015,02,23,07,32,0.20
2015,02,23,07,33,0.20
2015,02,23,07,34,0.30
2015,02,23,07,35,0.40
2015,02,23,07,36,0.40
2015,02,23,07,37,0.50
2015,02,23,07,38,0.50
2015,02,23,07,39,0.60
2015,02,23,07,40,0.60
2015,02,23,07,41,0.70
2015,02,23,07,42,0.70
2015,02,23,07,43,0.80
2015,02,23,07,44,0.80
2015,02,23,07,45,0.90
2015,02,23,07,46,0.90
2015,02,23,07,47,1.00
2015,02,23,07,48,1.00
2015,02,23,07,49,1.10
2015,02,23,07,50,1.20
2015,02,23,07,51,1.30
2015,02,23,07,52,1.30
2015,02,23,07,53,1.40
2015,02,23,07,54,1.50
2015,02,23,07,55,1.50
2015,02,23,07,56,1.60
2015,02,23,07,57,1.70
2015,02,23,07,58,1.80
2015,02,23,07,59,1.90
2015,02,23,08,00,2.00
2015,02,23,08,01,2.10
2015,02,23,08,02,2.20
2015,02,23,08,03,2.30
2015,02,23,08,04,2.40
2015,02,23,08,05,2.50
2015,02,23,08,06,2.60
2015,02,23,08,07,2.70
2015,02,23,08,08,2.80
2015,02,23,08,09,2.80
2015,02,23,08,10,2.90
2015,02,23,08,11,2.90
2015,02,23,08,12,2.90
2015,02,23,08,13,2.90
2015,02,23,08,14,2.90
2015,02,23,08,15,2.90
2015,02,23,08,16,2.90
2015,02,23,08,17,2.90
2015,02,23,08,18,2.90
2015,02,23,08,19,2.90
2015,02,23,08,20,2.90
2015,02,23,08,21,3.00
2015,02,23,08,22,3.10
2015,02,23,08,23,3.30
2015,02,23,08,24,3.40
2015,02,23,08,25,3.60
2015,02,23,08,26,3.70
2015,02,23,08,27,3.80
2015,02,23,08,28,4.00
2015,02,23,08,29,4.00
2015,02,23,08,30,4.10
2015,02,23,08,31,4.20
2015,02,23,08,32,4.30
2015,02,23,08,33,4.40
2015,02,23,08,34,4.50
2015,02,23,08,35,4.60
2015,02,23,08,36,4.70
2015,02,23,08,37,4.80
2015,02,23,08,38,4.90
2015,02,23,08,39,4.90
2015,02,23,08,40,4.90
2015,02,23,08,41,4.90
2015,02,23,08,42,4.90
2015,02,23,08,43,4.90
2015,02,23,08,44,4.90
2015,02,23,08,45,4.90
2015,02,23,08,46,4.90
2015,02,23,08,47,4.90
2015,02,23,08,48,4.90
2015,02,23,08,49,4.90
2015,02,23,08,50,5.00
2015,02,23,08,51,5.10
2015,02,23,08,52,5.10
2015,02,23,08,53,5.10
2015,02,23,08,54,5.10
2015,02,23,08,55,5.10
2015,02,23,08,56,5.20
2015,02,23,08,57,5.20
2015,02,23,08,58,5.20
2015,02,23,08,59,5.30
2015,02,23,09,00,5.30
2015,02,23,09,01,5.30
2015,02,23,09,02,5.40
2015,02,23,09,03,5.50
2015,02,23,09,04,5.50
2015,02,23,09,05,5.50
2015,02,23,09,06,5.60
2015,02,23,09,07,5.70
2015,02,23,09,08,5.70
2015,02,23,09,09,5.70
2015,02,23,09,10,5.80
2015,02,23,09,11,5.90
2015,02,23,09,12,5.90
2015,02,23,09,13,5.90
2015,02,23,09,14,6.00
2015,02,23,09,15,6.00
2015,02,23,09,16,6.10
2015,02,23,09,17,6.20
2015,02,23,09,18,6.20
2015,02,23,09,19,6.20
2015,02,23,09,20,6.20
2015,02,23,09,21,6.20
2015,02,23,09,22,6.30
2015,02,23,09,23,6.30
2015,02,23,09,24,6.40
2015,02,23,09,25,6.40
2015,02,23,09,26,6.40
2015,02,23,09,27,6.40
2015,02,23,09,28,6.50
2015,02,23,09,29,6.60
2015,02,23,09,30,6.60
2015,02,23,09,31,6.60
2015,02,23,09,32,6.70
2015,02,23,09,33,6.70
2015,02,23,09,34,6.70
2015,02,23,09,35,6.70
2015,02,23,09,36,6.80
2015,02,23,09,37,6.80
2015,02,23,09,38,6.80
2015,02,23,09,39,6.80
2015,02,23,09,40,6.80
2015,02,23,09,41,6.90
2015,02,23,09,42,6.90
2015,02,23,09,43,6.90
2015,02,23,09,44,6.90
2015,02,23,09,45,6.90
2015,02,23,09,46,6.90
2015,02,23,09,47,6.90
2015,02,23,09,48,6.90
2015,02,23,09,49,6.90
2015,02,23,09,50,6.90
2015,02,23,09,51,6.90
2015,02,23,09,52,6.90
2015,02,23,09,53,6.90
2015,02,23,09,54,7.00
2015,02,23,09,55,7.00
2015,02,23,09,56,7.00
2015,02,23,09,57,7.00
2015,02,23,09,58,7.00
2015,02,23,09,59,7.00
2015,02,23,10,00,7.00
2015,02,23,10,01,7.00
2015,02,23,10,02,7.00
2015,02,23,10,03,7.00
2015,02,23,10,04,7.00
2015,02,23,10,05,7.00
2015,02,23,10,06,7.00
2015,02,23,10,07,6.90
2015,02,23,10,08,6.90
2015,02,23,10,09,7.00
2015,02,23,10,10,7.00
2015,02,23,10,11,7.00
2015,02,23,10,12,7.00
2015,02,23,10,13,7.00
2015,02,23,10,14,7.00
2015,02,23,10,15,7.00
2015,02,23,10,16,7.00
2015,02,23,10,17,6.90
2015,02,23,10,18,6.90
2015,02,23,10,19,6.90
2015,02,23,10,20,6.90
2015,02,23,10,21,6.90
2015,02,23,10,22,6.90
2015,02,23,10,23,6.90
2015,02,23,10,24,6.90
2015,02,23,10,25,6.90
2015,02,23,10,26,7.00
2015,02,23,10,27,7.00
2015,02,23,10,28,7.10
2015,02,23,10,29,7.20
2015,02,23,10,30,7.30
2015,02,23,10,31,7.30
2015,02,23,10,32,7.30
2015,02,23,10,33,7.30
2015,02,23,10,34,7.20
2015,02,23,10,35,7.20
2015,02,23,10,36,7.20
2015,02,23,10,37,7.20
2015,02,23,10,38,7.10
2015,02,23,10,39,7.10
2015,02,23,10,40,7.10
2015,02,23,10,41,7.10
2015,02,23,10,42,7.10
2015,02,23,10,43,7.10
2015,02,23,10,44,7.10
2015,02,23,10,45,7.10
2015,02,23,10,46,7.10
2015,02,23,10,47,7.20
2015,02,23,10,48,7.20
2015,02,23,10,49,7.20
2015,02,23,10,50,7.20
2015,02,23,10,51,7.20
2015,02,23,10,52,7.20
2015,02,23,10,53,7.30
2015,02,23,10,54,7.30
2015,02,23,10,55,7.30
2015,02,23,10,56,7.40
2015,02,23,10,57,7.50
2015,02,23,10,58,7.60
2015,02,23,10,59,7.70
2015,02,23,11,00,7.70
2015,02,23,11,01,7.80
2015,02,23,11,02,7.80
2015,02,23,11,03,7.90
2015,02,23,11,04,7.90
2015,02,23,11,05,7.90
2015,02,23,11,06,7.80
2015,02,23,11,07,7.80
2015,02,23,11,08,7.80
2015,02,23,11,09,7.80
2015,02,23,11,10,7.80
2015,02,23,11,11,7.80
2015,02,23,11,12,7.80
2015,02,23,11,13,7.80
2015,02,23,11,14,7.80
2015,02,23,11,15,7.80
2015,02,23,11,16,7.90
2015,02,23,11,17,7.90
2015,02,23,11,18,7.90
2015,02,23,11,19,7.90
2015,02,23,11,20,7.90
2015,02,23,11,21,7.90
2015,02,23,11,22,7.90
2015,02,23,11,23,7.90
2015,02,23,11,24,7.90
2015,02,23,11,25,7.90
2015,02,23,11,26,7.90
2015,02,23,11,27,7.90
2015,02,23,11,28,7.90
2015,02,23,11,29,7.90
2015,02,23,11,30,7.80
2015,02,23,11,31,7.90
2015,02,23,11,32,7.90
2015,02,23,11,33,7.90
2015,02,23,11,34,7.90
2015,02,23,11,35,7.90
2015,02,23,11,36,8.00
2015,02,23,11,37,8.00
2015,02,23,11,38,8.00
2015,02,23,11,39,8.00
2015,02,23,11,40,8.00
2015,02,23,11,41,8.10
2015,02,23,11,42,8.10
2015,02,23,11,43,8.10
2015,02,23,11,44,8.10
2015,02,23,11,45,8.10
2015,02,23,11,46,8.10
2015,02,23,11,47,8.10
2015,02,23,11,48,8.10
2015,02,23,11,49,8.10
2015,02,23,11,50,8.10
2015,02,23,11,51,8.10
2015,02,23,11,52,8.10
2015,02,23,11,53,8.10
2015,02,23,11,54,8.10
2015,02,23,11,55,8.10
2015,02,23,11,56,8.10
2015,02,23,11,57,8.10
2015,02,23,11,58,8.10
2015,02,23,11,59,8.20
2015,02,23,12,00,8.20
2015,02,23,12,01,8.20
2015,02,23,12,02,8.20
2015,02,23,12,03,8.20
2015,02,23,12,04,8.20
2015,02,23,12,05,8.30
2015,02,23,12,06,8.30
2015,02,23,12,07,8.30
2015,02,23,12,08,8.30
2015,02,23,12,09,8.30
2015,02,23,12,10,8.30
2015,02,23,12,11,8.30
2015,02,23,12,12,8.30
2015,02,23,12,13,8.30
2015,02,23,12,14,8.30
2015,02,23,12,15,8.30
2015,02,23,12,16,8.30
2015,02,23,12,17,8.30
2015,02,23,12,18,8.40
2015,02,23,12,19,8.40
2015,02,23,12,20,8.50
2015,02,23,12,21,8.50
2015,02,23,12,22,8.60
2015,02,23,12,23,8.70
2015,02,23,12,24,8.70
2015,02,23,12,25,8.70
2015,02,23,12,26,8.70
2015,02,23,12,27,8.70
2015,02,23,12,28,8.70
2015,02,23,12,29,8.70
2015,02,23,12,30,8.70
2015,02,23,12,31,8.70
2015,02,23,12,32,8.70
2015,02,23,12,33,8.70
2015,02,23,12,34,8.70
2015,02,23,12,35,8.80
2015,02,23,12,36,8.90
2015,02,23,12,37,8.90
2015,02,23,12,38,8.90
2015,02,23,12,39,9.00
2015,02,23,12,40,9.00
2015,02,23,12,41,9.10
2015,02,23,12,42,9.10
2015,02,23,12,43,9.00
2015,02,23,12,44,9.00
2015,02,23,12,45,9.00
2015,02,23,12,46,8.90
2015,02,23,12,47,8.80
2015,02,23,12,48,8.70
2015,02,23,12,49,8.70
2015,02,23,12,50,8.60
2015,02,23,12,51,8.60
2015,02,23,12,52,8.70
2015,02,23,12,53,8.70
2015,02,23,12,54,8.70
2015,02,23,12,55,8.80
2015,02,23,12,56,8.90
2015,02,23,12,57,8.90
2015,02,23,12,58,9.00
2015,02,23,12,59,9.00
2015,02,23,13,00,9.10
2015,02,23,13,01,9.10
2015,02,23,13,02,9.10
2015,02,23,13,03,9.10
2015,02,23,13,04,9.20
2015,02,23,13,05,9.20
2015,02,23,13,06,9.20
2015,02,23,13,07,9.20
2015,02,23,13,08,9.20
2015,02,23,13,09,9.20
2015,02,23,13,10,9.20
2015,02,23,13,11,9.20
2015,02,23,13,12,9.20
2015,02,23,13,13,9.20
2015,02,23,13,14,9.20
2015,02,23,13,15,9.20
2015,02,23,13,16,9.30
2015,02,23,13,17,9.30
2015,02,23,13,18,9.30
2015,02,23,13,19,9.30
2015,02,23,13,20,9.40
2015,02,23,13,21,9.50
2015,02,23,13,22,9.50
2015,02,23,13,23,9.60
2015,02,23,13,24,9.70
2015,02,23,13,25,9.70
2015,02,23,13,26,9.70
2015,02,23,13,27,9.70
2015,02,23,13,28,9.70
2015,02,23,13,29,9.70
2015,02,23,13,30,9.70
2015,02,23,13,31,9.70
2015,02,23,13,32,9.70
2015,02,23,13,33,9.70
2015,02,23,13,34,9.70
2015,02,23,13,35,9.70
2015,02,23,13,36,9.70
2015,02,23,13,37,9.70
2015,02,23,13,38,9.80
2015,02,23,13,39,9.80
2015,02,23,13,40,9.80
2015,02,23,13,41,9.80
2015,02,23,13,42,9.80
2015,02,23,13,43,9.80
2015,02,23,13,44,9.80
2015,02,23,13,45,9.80
2015,02,23,13,46,9.80
2015,02,23,13,47,9.80
2015,02,23,13,48,9.80
2015,02,23,13,49,9.70
2015,02,23,13,50,9.70
2015,02,23,13,51,9.70
2015,02,23,13,52,9.70
2015,02,23,13,53,9.70
2015,02,23,13,54,9.70
2015,02,23,13,55,9.80
2015,02,23,13,56,9.80
2015,02,23,13,57,9.80
2015,02,23,13,58,9.80
2015,02,23,13,59,9.90
2015,02,23,14,00,9.90
2015,02,23,14,01,10.00
2015,02,23,14,02,10.10
2015,02,23,14,03,10.10
2015,02,23,14,04,10.00
2015,02,23,14,05,9.90
2015,02,23,14,06,9.90
2015,02,23,14,07,9.90
2015,02,23,14,08,9.90
2015,02,23,14,09,10.00
2015,02,23,14,10,10.10
2015,02,23,14,11,10.10
2015,02,23,14,12,10.10
2015,02,23,14,13,10.00
2015,02,23,14,14,9.90
2015,02,23,14,15,9.90
2015,02,23,14,16,9.90
2015,02,23,14,17,9.90
2015,02,23,14,18,10.00
2015,02,23,14,19,10.10
2015,02,23,14,20,10.10
2015,02,23,14,21,10.10
2015,02,23,14,22,10.10
2015,02,23,14,23,10.10
2015,02,23,14,24,10.10
2015,02,23,14,25,10.10
2015,02,23,14,26,10.20
2015,02,23,14,27,10.20
2015,02,23,14,28,10.20
2015,02,23,14,29,10.30
2015,02,23,14,30,10.30
2015,02,23,14,31,10.20
2015,02,23,14,32,10.10
2015,02,23,14,33,10.10
2015,02,23,14,34,10.10
2015,02,23,14,35,10.10
2015,02,23,14,36,10.10
2015,02,23,14,37,10.20
2015,02,23,14,38,10.20
2015,02,23,14,39,10.20
2015,02,23,14,40,10.10
2015,02,23,14,41,10.20
2015,02,23,14,42,10.20
2015,02,23,14,43,10.20
2015,02,23,14,44,10.20
2015,02,23,14,45,10.20
2015,02,23,14,46,10.20
2015,02,23,14,47,10.20
2015,02,23,14,48,10.30
2015,02,23,14,49,10.30
2015,02,23,14,50,10.30
2015,02,23,14,51,10.30
2015,02,23,14,52,10.30
2015,02,23,14,53,10.30
2015,02,23,14,54,10.30
2015,02,23,14,55,10.30
2015,02,23,14,56,10.30
2015,02,23,14,57,10.30
2015,02,23,14,58,10.30
2015,02,23,14,59,10.30
2015,02,23,15,00,10.20
2015,02,23,15,01,10.20
2015,02,23,15,02,10.20
2015,02,23,15,03,10.20
2015,02,23,15,04,10.20
2015,02,23,15,05,10.20
2015,02,23,15,06,10.20
2015,02,23,15,07,10.20
2015,02,23,15,08,10.30
2015,02,23,15,09,10.30
2015,02,23,15,10,10.30
2015,02,23,15,11,10.30
2015,02,23,15,12,10.30
2015,02,23,15,13,10.30
2015,02,23,15,14,10.30
2015,02,23,15,15,10.30
2015,02,23,15,16,10.30
2015,02,23,15,17,10.30
2015,02,23,15,18,10.30
2015,02,23,15,19,10.30
2015,02,23,15,20,10.30
2015,02,23,15,21,10.30
2015,02,23,15,22,10.30
2015,02,23,15,23,10.30
2015,02,23,15,24,10.30
2015,02,23,15,25,10.30
2015,02,23,15,26,10.30
2015,02,23,15,27,10.20
2015,02,23,15,28,10.20
2015,02,23,15,29,10.20
2015,02,23,15,30,10.30
2015,02,23,15,31,10.30
2015,02,23,15,32,10.20
2015,02,23,15,33,10.20
2015,02,23,15,34,10.10
2015,02,23,15,35,10.10
2015,02,23,15,36,10.10
2015,02,23,15,37,10.10
2015,02,23,15,38,10.10
2015,02,23,15,39,10.00
2015,02,23,15,40,9.90
2015,02,23,15,41,9.90
2015,02,23,15,42,9.90
2015,02,23,15,43,9.90
2015,02,23,15,44,9.90
2015,02,23,15,45,9.90
2015,02,23,15,46,9.90
2015,02,23,15,47,9.90
2015,02,23,15,48,9.80
2015,02,23,15,49,9.80
2015,02,23,15,50,9.80
2015,02,23,15,51,9.80
2015,02,23,15,52,9.70
2015,02,23,15,53,9.70
2015,02,23,15,54,9.70
2015,02,23,15,55,9.70
2015,02,23,15,56,9.70
2015,02,23,15,57,9.70
2015,02,23,15,58,9.70
2015,02,23,15,59,9.60
2015,02,23,16,00,9.60
2015,02,23,16,01,9.60
2015,02,23,16,02,9.60
2015,02,23,16,03,9.60
2015,02,23,16,04,9.60
2015,02,23,16,05,9.60
2015,02,23,16,06,9.50
2015,02,23,16,07,9.50
2015,02,23,16,08,9.50
2015,02,23,16,09,9.50
2015,02,23,16,10,9.50
2015,02,23,16,11,9.50
2015,02,23,16,12,9.50
2015,02,23,16,13,9.50
2015,02,23,16,14,9.50
2015,02,23,16,15,9.50
2015,02,23,16,16,9.50
2015,02,23,16,17,9.50
2015,02,23,16,18,9.50
2015,02,23,16,19,9.50
2015,02,23,16,20,9.40
2015,02,23,16,21,9.40
2015,02,23,16,22,9.40
2015,02,23,16,23,9.40
2015,02,23,16,24,9.40
2015,02,23,16,25,9.30
2015,02,23,16,26,9.30
2015,02,23,16,27,9.30
2015,02,23,16,28,9.30
2015,02,23,16,29,9.30
2015,02,23,16,30,9.30
2015,02,23,16,31,9.30
2015,02,23,16,32,9.30
2015,02,23,16,33,9.30
2015,02,23,16,34,9.30
2015,02,23,16,35,9.20
2015,02,23,16,36,9.20
2015,02,23,16,37,9.20
2015,02,23,16,38,9.20
2015,02,23,16,39,9.20
2015,02,23,16,40,9.20
2015,02,23,16,41,9.20
2015,02,23,16,42,9.20
2015,02,23,16,43,9.20
2015,02,23,16,44,9.20
2015,02,23,16,45,9.20
2015,02,23,16,46,9.20
2015,02,23,16,47,9.20
2015,02,23,16,48,9.20
2015,02,23,16,49,9.20
2015,02,23,16,50,9.20
2015,02,23,16,51,9.10
2015,02,23,16,52,9.10
2015,02,23,16,53,9.10
2015,02,23,16,54,9.00
2015,02,23,16,55,9.00
2015,02,23,16,56,9.00
2015,02,23,16,57,9.00
2015,02,23,16,58,9.00
2015,02,23,16,59,8.90
2015,02,23,17,00,8.90
2015,02,23,17,01,8.90
2015,02,23,17,02,8.90
2015,02,23,17,03,8.80
2015,02,23,17,04,8.80
2015,02,23,17,05,8.80
2015,02,23,17,06,8.80
2015,02,23,17,07,8.70
2015,02,23,17,08,8.70
2015,02,23,17,09,8.70
2015,02,23,17,10,8.70
2015,02,23,17,11,8.70
2015,02,23,17,12,8.70
2015,02,23,17,13,8.70
2015,02,23,17,14,8.70
2015,02,23,17,15,8.60
2015,02,23,17,16,8.60
2015,02,23,17,17,8.60
2015,02,23,17,18,8.50
2015,02,23,17,19,8.50
2015,02,23,17,20,8.50
2015,02,23,17,21,8.50
2015,02,23,17,22,8.40
2015,02,23,17,23,8.40
2015,02,23,17,24,8.40
2015,02,23,17,25,8.30
2015,02,23,17,26,8.30
2015,02,23,17,27,8.30
2015,02,23,17,28,8.20
2015,02,23,17,29,8.20
2015,02,23,17,30,8.20
2015,02,23,17,31,8.20
2015,02,23,17,32,8.10
2015,02,23,17,33,8.10
2015,02,23,17,34,8.10
2015,02,23,17,35,8.00
2015,02,23,17,36,8.00
2015,02,23,17,37,7.90
2015,02,23,17,38,7.90
2015,02,23,17,39,7.90
2015,02,23,17,40,7.80
2015,02,23,17,41,7.80
2015,02,23,17,42,7.80
2015,02,23,17,43,7.70
2015,02,23,17,44,7.70
2015,02,23,17,45,7.60
2015,02,23,17,46,7.60
2015,02,23,17,47,7.50
2015,02,23,17,48,7.50
2015,02,23,17,49,7.40
2015,02,23,17,50,7.40
2015,02,23,17,51,7.30
2015,02,23,17,52,7.30
2015,02,23,17,53,7.30